Tracking 23582 objects as of 31-Jul-2021
HD Live streaming from Space Station
objects crossing your sky now

NAVSTAR 81 (USA 319)

Track NAVSTAR 81 (USA 319) now!
NAVSTAR 81 (USA 319) is classified as:


NORAD ID: 48859
Int'l Code: 2021-054A
Perigee: 20,181.8 km
Apogee: 20,196.5 km
Inclination: 55.0 °
Period: 718.0 minutes
Semi major axis: 26560 km
RCS: Unknown
Launch date: June 17, 2021
Source: United States (US)
Launch site: AIR FORCE EASTERN TEST RANGE (AFETR)
aabbcc
Your satellite tracking list
Your tracking list is empty




NASA's NSSDC Master Catalog

Two Line Element Set (TLE):
1 48859U 21054A   21203.81944444 -.00000066  00000-0  00000-0 0  9995
2 48859  55.0008  44.3506 0002766 100.7730  51.5181  2.00565437   840
Source of the keplerian elements: AFSPC